owner,sensor,date,latitude,longitude,vertical_datum,direction_of_sea_water_velocity,sea_water_speed,upward_sea_water_velocity,qcFlag 
TABS,ioos:station:wmo:42050:1,2009-08-01T00:00:00Z,28.8425,-94.2433,2.0,179.0780332,8.081045724,-99999.0,'11133222,11111222,99999999' 
TABS,ioos:station:wmo:42050:1,2009-08-01T00:30:00Z,28.8425,-94.2433,2.0,185.6506491,4.773195994,-99999.0,'11133222,11111222,99999999' 
TABS,ioos:station:wmo:42050:1,2009-08-01T01:00:00Z,28.8425,-94.2433,2.0,178.2283239,2.91139142,-99999.0,'11133222,11111222,99999999' 
TABS,ioos:station:wmo:42050:1,2009-08-01T01:30:00Z,28.8425,-94.2433,2.0,228.9992124,4.359323342,-99999.0,'11133222,11111222,99999999' 
TABS,ioos:station:wmo:42050:1,2009-08-01T02:00:00Z,28.8425,-94.2433,2.0,50.31779126,2.975583976,-99999.0,'11133222,11111222,99999999' 
TABS,ioos:station:wmo:42050:1,2009-08-01T02:30:00Z,28.8425,-94.2433,2.0,345.3497758,4.072407151,-99999.0,'11133222,11111222,99999999' 
TABS,ioos:station:wmo:42050:1,2009-08-01T03:00:00Z,28.8425,-94.2433,2.0,22.46617646,5.443096545,-99999.0,'11133222,11111222,99999999' 
TABS,ioos:station:wmo:42050:1,2009-08-01T03:30:00Z,28.8425,-94.2433,2.0,12.47799899,7.312728629,-99999.0,'11133222,11111222,99999999' 
TABS,ioos:station:wmo:42050:1,2009-08-01T04:00:00Z,28.8425,-94.2433,2.0,25.76621442,5.452063829,-99999.0,'11133222,11111222,99999999' 
TABS,ioos:station:wmo:42050:1,2009-08-01T04:30:00Z,28.8425,-94.2433,2.0,0.980924579,7.011027029,-99999.0,'11133222,11111222,99999999' 
TABS,ioos:station:wmo:42050:1,2009-08-01T05:00:00Z,28.8425,-94.2433,2.0,27.87309206,9.796529998,-99999.0,'11133222,11111222,99999999' 
TABS,ioos:station:wmo:42050:1,2009-08-01T05:30:00Z,28.8425,-94.2433,2.0,25.80528289,9.441509413,-99999.0,'11133222,11111222,99999999' 
TABS,ioos:station:wmo:42050:1,2009-08-01T06:00:00Z,28.8425,-94.2433,2.0,23.72425154,10.73737864,-99999.0,'11111222,11111222,99999999' 
TABS,ioos:station:wmo:42050:1,2009-08-01T06:30:00Z,28.8425,-94.2433,2.0,37.34278968,8.968305303,-99999.0,'11133222,11111222,99999999' 
TABS,ioos:station:wmo:42050:1,2009-08-01T07:00:00Z,28.8425,-94.2433,2.0,62.83820289,8.586966868,-99999.0,'11133222,11111222,99999999' 
TABS,ioos:station:wmo:42050:1,2009-08-01T07:30:00Z,28.8425,-94.2433,2.0,61.30464537,10.22589849,-99999.0,'11111222,11111222,99999999' 
TABS,ioos:station:wmo:42050:1,2009-08-01T08:00:00Z,28.8425,-94.2433,2.0,59.33114507,8.998649899,-99999.0,'11133222,11111222,99999999' 
TABS,ioos:station:wmo:42050:1,2009-08-01T08:30:00Z,28.8425,-94.2433,2.0,77.7329252,10.44856449,-99999.0,'11111222,11111222,99999999' 
TABS,ioos:station:wmo:42050:1,2009-08-01T09:00:00Z,28.8425,-94.2433,2.0,87.66392069,9.567951714,-99999.0,'11133222,11111222,99999999' 
TABS,ioos:station:wmo:42050:1,2009-08-01T09:30:00Z,28.8425,-94.2433,2.0,101.0575039,11.57488661,-99999.0,'11111222,11111222,99999999' 
TABS,ioos:station:wmo:42050:1,2009-08-01T10:00:00Z,28.8425,-94.2433,2.0,104.1477771,11.21001784,-99999.0,'11111222,11111222,99999999' 
TABS,ioos:station:wmo:42050:1,2009-08-01T10:30:00Z,28.8425,-94.2433,2.0,109.1394947,13.11495711,-99999.0,'11111222,11111222,99999999' 
TABS,ioos:station:wmo:42050:1,2009-08-01T11:00:00Z,28.8425,-94.2433,2.0,100.4897019,11.9191988,-99999.0,'11111222,11111222,99999999' 
TABS,ioos:station:wmo:42050:1,2009-08-01T11:30:00Z,28.8425,-94.2433,2.0,118.3177024,11.40481039,-99999.0,'11111222,11111222,99999999' 
TABS,ioos:station:wmo:42050:1,2009-08-01T12:00:00Z,28.8425,-94.2433,2.0,118.8176935,10.80856142,-99999.0,'11111222,11111222,99999999' 
TABS,ioos:station:wmo:42050:1,2009-08-01T12:30:00Z,28.8425,-94.2433,2.0,110.4376285,13.03021872,-99999.0,'11111222,11111222,99999999' 
TABS,ioos:station:wmo:42050:1,2009-08-01T13:00:00Z,28.8425,-94.2433,2.0,105.1140342,13.53830861,-99999.0,'11111222,11111222,99999999' 
TABS,ioos:station:wmo:42050:1,2009-08-01T13:30:00Z,28.8425,-94.2433,2.0,96.55452202,13.57875547,-99999.0,'11111222,11111222,99999999' 
TABS,ioos:station:wmo:42050:1,2009-08-01T14:00:00Z,28.8425,-94.2433,2.0,101.7942591,14.3836713,-99999.0,'11111222,11111222,99999999' 
TABS,ioos:station:wmo:42050:1,2009-08-01T14:30:00Z,28.8425,-94.2433,2.0,110.5610403,13.29704478,-99999.0,'11111222,11111222,99999999' 
TABS,ioos:station:wmo:42050:1,2009-08-01T15:00:00Z,28.8425,-94.2433,2.0,112.7509231,10.75695124,-99999.0,'11111222,11111222,99999999' 
TABS,ioos:station:wmo:42050:1,2009-08-01T15:30:00Z,28.8425,-94.2433,2.0,107.7168848,13.37432241,-99999.0,'11111222,11111222,99999999' 
TABS,ioos:station:wmo:42050:1,2009-08-01T16:00:00Z,28.8425,-94.2433,2.0,106.6820816,16.02443447,-99999.0,'11111222,11111222,99999999' 
TABS,ioos:station:wmo:42050:1,2009-08-01T16:30:00Z,28.8425,-94.2433,2.0,103.3555752,15.10861013,-99999.0,'11111222,11111222,99999999' 
TABS,ioos:station:wmo:42050:1,2009-08-01T17:00:00Z,28.8425,-94.2433,2.0,112.4020772,15.58626639,-99999.0,'11111222,11111222,99999999' 
TABS,ioos:station:wmo:42050:1,2009-08-01T17:30:00Z,28.8425,-94.2433,2.0,108.0137156,14.19584798,-99999.0,'11111222,11111222,99999999' 
TABS,ioos:station:wmo:42050:1,2009-08-01T18:00:00Z,28.8425,-94.2433,2.0,119.080235,17.32385638,-99999.0,'11111222,11111222,99999999' 
TABS,ioos:station:wmo:42050:1,2009-08-01T18:30:00Z,28.8425,-94.2433,2.0,116.5356368,17.45922106,-99999.0,'11111222,11111222,99999999' 
TABS,ioos:station:wmo:42050:1,2009-08-01T19:00:00Z,28.8425,-94.2433,2.0,126.7141171,18.40006793,-99999.0,'11111222,11111222,99999999' 
TABS,ioos:station:wmo:42050:1,2009-08-01T19:30:00Z,28.8425,-94.2433,2.0,127.9147391,17.65693631,-99999.0,'11111222,11111222,99999999' 
TABS,ioos:station:wmo:42050:1,2009-08-01T20:00:00Z,28.8425,-94.2433,2.0,139.1300484,19.43935184,-99999.0,'11111222,11111222,99999999' 
TABS,ioos:station:wmo:42050:1,2009-08-01T20:30:00Z,28.8425,-94.2433,2.0,138.7833926,19.39578562,-99999.0,'11111222,11111222,99999999' 
TABS,ioos:station:wmo:42050:1,2009-08-01T21:00:00Z,28.8425,-94.2433,2.0,137.6418414,21.01633888,-99999.0,'11111222,11111222,99999999' 
TABS,ioos:station:wmo:42050:1,2009-08-01T21:30:00Z,28.8425,-94.2433,2.0,138.9035221,20.46164461,-99999.0,'11111222,11111222,99999999' 
TABS,ioos:station:wmo:42050:1,2009-08-01T22:00:00Z,28.8425,-94.2433,2.0,143.5383586,20.76452744,-99999.0,'11111222,11111222,99999999' 
TABS,ioos:station:wmo:42050:1,2009-08-01T22:30:00Z,28.8425,-94.2433,2.0,147.0129671,20.79172912,-99999.0,'11111222,11111222,99999999' 
TABS,ioos:station:wmo:42050:1,2009-08-01T23:00:00Z,28.8425,-94.2433,2.0,154.1201573,17.57227931,-99999.0,'11111222,11111222,99999999' 
TABS,ioos:station:wmo:42050:1,2009-08-01T23:30:00Z,28.8425,-94.2433,2.0,149.8999907,15.0146928,-99999.0,'11111222,11111222,99999999' 
TABS,ioos:station:wmo:42050:1,2009-08-02T00:00:00Z,28.8425,-94.2433,2.0,154.4232837,12.18391152,-99999.0,'11111222,11111222,99999999' 
TABS,ioos:station:wmo:42050:1,2009-08-02T00:30:00Z,28.8425,-94.2433,2.0,154.994039,12.49082864,-99999.0,'11111222,11111222,99999999' 
TABS,ioos:station:wmo:42050:1,2009-08-02T01:00:00Z,28.8425,-94.2433,2.0,168.9417924,8.029072176,-99999.0,'11133222,11111222,99999999' 
TABS,ioos:station:wmo:42050:1,2009-08-02T01:30:00Z,28.8425,-94.2433,2.0,148.9682035,7.235530388,-99999.0,'11133222,11111222,99999999' 
TABS,ioos:station:wmo:42050:1,2009-08-02T02:00:00Z,28.8425,-94.2433,2.0,173.5502699,3.471973502,-99999.0,'11133222,11111222,99999999' 
TABS,ioos:station:wmo:42050:1,2009-08-02T02:30:00Z,28.8425,-94.2433,2.0,96.60482005,0.956347217,-99999.0,'11133222,11111222,99999999' 
TABS,ioos:station:wmo:42050:1,2009-08-02T03:00:00Z,28.8425,-94.2433,2.0,57.55537261,1.658945448,-99999.0,'11133222,11111222,99999999' 
TABS,ioos:station:wmo:42050:1,2009-08-02T03:30:00Z,28.8425,-94.2433,2.0,306.4124002,1.752055935,-99999.0,'11133222,11111222,99999999' 
TABS,ioos:station:wmo:42050:1,2009-08-02T04:00:00Z,28.8425,-94.2433,2.0,330.3904501,2.104875293,-99999.0,'11133222,11111222,99999999' 
TABS,ioos:station:wmo:42050:1,2009-08-02T04:30:00Z,28.8425,-94.2433,2.0,42.68205682,4.720264823,-99999.0,'11133222,11111222,99999999' 
TABS,ioos:station:wmo:42050:1,2009-08-02T05:00:00Z,28.8425,-94.2433,2.0,8.168037963,4.293553307,-99999.0,'11133222,11111222,99999999' 
TABS,ioos:station:wmo:42050:1,2009-08-02T05:30:00Z,28.8425,-94.2433,2.0,22.7065282,3.056926561,-99999.0,'11133222,11111222,99999999' 
TABS,ioos:station:wmo:42050:1,2009-08-02T06:00:00Z,28.8425,-94.2433,2.0,39.83581236,2.435261793,-99999.0,'11133222,11111222,99999999' 
TABS,ioos:station:wmo:42050:1,2009-08-02T06:30:00Z,28.8425,-94.2433,2.0,30.30817906,4.795414476,-99999.0,'11133222,11111222,99999999' 
TABS,ioos:station:wmo:42050:1,2009-08-02T07:00:00Z,28.8425,-94.2433,2.0,48.86192745,4.514521016,-99999.0,'11133222,11111222,99999999' 
TABS,ioos:station:wmo:42050:1,2009-08-02T07:30:00Z,28.8425,-94.2433,2.0,44.1254305,5.558506994,-99999.0,'11133222,11111222,99999999' 
TABS,ioos:station:wmo:42050:1,2009-08-02T08:00:00Z,28.8425,-94.2433,2.0,73.68618572,6.408002809,-99999.0,'11133222,11111222,99999999' 
TABS,ioos:station:wmo:42050:1,2009-08-02T08:30:00Z,28.8425,-94.2433,2.0,89.34253784,6.100401626,-99999.0,'11133222,11111222,99999999' 
TABS,ioos:station:wmo:42050:1,2009-08-02T09:00:00Z,28.8425,-94.2433,2.0,88.07302292,5.353027181,-99999.0,'11133222,11111222,99999999' 
TABS,ioos:station:wmo:42050:1,2009-08-02T09:30:00Z,28.8425,-94.2433,2.0,76.73162317,7.058420503,-99999.0,'11133222,11111222,99999999' 
TABS,ioos:station:wmo:42050:1,2009-08-02T10:00:00Z,28.8425,-94.2433,2.0,88.91338465,9.491706907,-99999.0,'11133222,11111222,99999999' 
TABS,ioos:station:wmo:42050:1,2009-08-02T10:30:00Z,28.8425,-94.2433,2.0,92.70833609,9.100164834,-99999.0,'11133222,11111222,99999999' 
TABS,ioos:station:wmo:42050:1,2009-08-02T11:00:00Z,28.8425,-94.2433,2.0,94.99062213,10.69052852,-99999.0,'11111222,11111222,99999999' 
TABS,ioos:station:wmo:42050:1,2009-08-02T11:30:00Z,28.8425,-94.2433,2.0,98.7081588,12.61542706,-99999.0,'11111222,11111222,99999999' 
TABS,ioos:station:wmo:42050:1,2009-08-02T12:00:00Z,28.8425,-94.2433,2.0,80.90335526,14.16819325,-99999.0,'11111222,11111222,99999999' 
TABS,ioos:station:wmo:42050:1,2009-08-02T12:30:00Z,28.8425,-94.2433,2.0,90.08069804,14.20001408,-99999.0,'11111222,11111222,99999999' 
TABS,ioos:station:wmo:42050:1,2009-08-02T13:00:00Z,28.8425,-94.2433,2.0,90.58079464,16.77086164,-99999.0,'11111222,11111222,99999999' 
TABS,ioos:station:wmo:42050:1,2009-08-02T13:30:00Z,28.8425,-94.2433,2.0,96.70159755,16.28124381,-99999.0,'11111222,11111222,99999999' 
TABS,ioos:station:wmo:42050:1,2009-08-02T14:00:00Z,28.8425,-94.2433,2.0,97.76964923,11.46525621,-99999.0,'11111222,11111222,99999999' 
TABS,ioos:station:wmo:42050:1,2009-08-02T14:30:00Z,28.8425,-94.2433,2.0,103.1117202,15.03188944,-99999.0,'11111222,11111222,99999999' 
TABS,ioos:station:wmo:42050:1,2009-08-02T15:00:00Z,28.8425,-94.2433,2.0,101.933102,16.58848396,-99999.0,'11111222,11111222,99999999' 
TABS,ioos:station:wmo:42050:1,2009-08-02T15:30:00Z,28.8425,-94.2433,2.0,103.9410089,17.51594702,-99999.0,'11111222,11111222,99999999' 
TABS,ioos:station:wmo:42050:1,2009-08-02T16:00:00Z,28.8425,-94.2433,2.0,102.3114955,20.30700618,-99999.0,'11111222,11111222,99999999' 
TABS,ioos:station:wmo:42050:1,2009-08-02T16:30:00Z,28.8425,-94.2433,2.0,111.3693647,19.21072877,-99999.0,'11111222,11111222,99999999' 
TABS,ioos:station:wmo:42050:1,2009-08-02T17:00:00Z,28.8425,-94.2433,2.0,110.4762996,19.35277241,-99999.0,'11111222,11111222,99999999' 
TABS,ioos:station:wmo:42050:1,2009-08-02T17:30:00Z,28.8425,-94.2433,2.0,116.3134181,20.37077564,-99999.0,'11111222,11111222,99999999' 
TABS,ioos:station:wmo:42050:1,2009-08-02T18:00:00Z,28.8425,-94.2433,2.0,119.0545362,19.14987206,-99999.0,'11111222,11111222,99999999' 
TABS,ioos:station:wmo:42050:1,2009-08-02T18:30:00Z,28.8425,-94.2433,2.0,125.7512101,21.51410003,-99999.0,'11111222,11111222,99999999' 
TABS,ioos:station:wmo:42050:1,2009-08-02T19:00:00Z,28.8425,-94.2433,2.0,125.5919377,22.0614868,-99999.0,'11111222,11111222,99999999' 
TABS,ioos:station:wmo:42050:1,2009-08-02T19:30:00Z,28.8425,-94.2433,2.0,133.1785225,20.91264211,-99999.0,'11111222,11111222,99999999' 
TABS,ioos:station:wmo:42050:1,2009-08-02T20:00:00Z,28.8425,-94.2433,2.0,143.6363534,23.30891031,-99999.0,'11111222,11111222,99999999' 
TABS,ioos:station:wmo:42050:1,2009-08-02T20:30:00Z,28.8425,-94.2433,2.0,148.4630327,21.7762646,-99999.0,'11111222,11111222,99999999' 
TABS,ioos:station:wmo:42050:1,2009-08-02T21:00:00Z,28.8425,-94.2433,2.0,157.5040877,22.37236018,-99999.0,'11111222,11111222,99999999' 
TABS,ioos:station:wmo:42050:1,2009-08-02T21:30:00Z,28.8425,-94.2433,2.0,158.1241598,22.92039485,-99999.0,'11111222,11111222,99999999' 
TABS,ioos:station:wmo:42050:1,2009-08-02T22:00:00Z,28.8425,-94.2433,2.0,160.5450161,21.49740682,-99999.0,'11111222,11111222,99999999' 
TABS,ioos:station:wmo:42050:1,2009-08-02T22:30:00Z,28.8425,-94.2433,2.0,162.7632837,19.20238787,-99999.0,'11111222,11111222,99999999' 
TABS,ioos:station:wmo:42050:1,2009-08-02T23:00:00Z,28.8425,-94.2433,2.0,160.2781755,16.47645896,-99999.0,'11111222,11111222,99999999' 
TABS,ioos:station:wmo:42050:1,2009-08-02T23:30:00Z,28.8425,-94.2433,2.0,166.5075086,13.02960091,-99999.0,'11111222,11111222,99999999' 
TABS,ioos:station:wmo:42050:1,2009-08-03T00:00:00Z,28.8425,-94.2433,2.0,177.5457636,10.50963843,-99999.0,'11111222,11111222,99999999' 
TABS,ioos:station:wmo:42050:1,2009-08-03T00:30:00Z,28.8425,-94.2433,2.0,165.9274416,7.6908062,-99999.0,'11133222,11111222,99999999' 
TABS,ioos:station:wmo:42050:1,2009-08-03T01:00:00Z,28.8425,-94.2433,2.0,181.3166989,8.702298547,-99999.0,'11133222,11111222,99999999' 
TABS,ioos:station:wmo:42050:1,2009-08-03T01:30:00Z,28.8425,-94.2433,2.0,193.3242896,5.467174773,-99999.0,'11133222,11111222,99999999' 
TABS,ioos:station:wmo:42050:1,2009-08-03T02:00:00Z,28.8425,-94.2433,2.0,206.3825991,2.812987735,-99999.0,'11133222,11111222,99999999' 
TABS,ioos:station:wmo:42050:1,2009-08-03T02:30:00Z,28.8425,-94.2433,2.0,317.1789907,2.60403533,-99999.0,'11133222,11111222,99999999' 
TABS,ioos:station:wmo:42050:1,2009-08-03T03:00:00Z,28.8425,-94.2433,2.0,328.4960174,4.363118151,-99999.0,'11133222,11111222,99999999' 
TABS,ioos:station:wmo:42050:1,2009-08-03T03:30:00Z,28.8425,-94.2433,2.0,344.2330648,5.299396192,-99999.0,'11133222,11111222,99999999' 
TABS,ioos:station:wmo:42050:1,2009-08-03T04:00:00Z,28.8425,-94.2433,2.0,347.56201,6.174933198,-99999.0,'11133222,11111222,99999999' 
TABS,ioos:station:wmo:42050:1,2009-08-03T04:30:00Z,28.8425,-94.2433,2.0,2.252249538,8.906879364,-99999.0,'11133222,11111222,99999999' 
TABS,ioos:station:wmo:42050:1,2009-08-03T05:00:00Z,28.8425,-94.2433,2.0,7.210529171,9.162456003,-99999.0,'11133222,11111222,99999999' 
TABS,ioos:station:wmo:42050:1,2009-08-03T05:30:00Z,28.8425,-94.2433,2.0,18.89093494,9.14243403,-99999.0,'11133222,11111222,99999999' 
TABS,ioos:station:wmo:42050:1,2009-08-03T06:00:00Z,28.8425,-94.2433,2.0,14.58616353,10.36402431,-99999.0,'11111222,11111222,99999999' 
TABS,ioos:station:wmo:42050:1,2009-08-03T06:30:00Z,28.8425,-94.2433,2.0,17.00453389,8.993158511,-99999.0,'11133222,11111222,99999999' 
TABS,ioos:station:wmo:42050:1,2009-08-03T07:00:00Z,28.8425,-94.2433,2.0,38.09517359,7.763774855,-99999.0,'11133222,11111222,99999999' 
TABS,ioos:station:wmo:42050:1,2009-08-03T07:30:00Z,28.8425,-94.2433,2.0,50.13264767,8.299355397,-99999.0,'11133222,11111222,99999999' 
TABS,ioos:station:wmo:42050:1,2009-08-03T08:00:00Z,28.8425,-94.2433,2.0,45.22656905,10.73396478,-99999.0,'11111222,11111222,99999999' 
TABS,ioos:station:wmo:42050:1,2009-08-03T08:30:00Z,28.8425,-94.2433,2.0,57.35859425,9.547989317,-99999.0,'11133222,11111222,99999999' 
TABS,ioos:station:wmo:42050:1,2009-08-03T09:00:00Z,28.8425,-94.2433,2.0,55.72256141,9.19741268,-99999.0,'11133222,11111222,99999999' 
TABS,ioos:station:wmo:42050:1,2009-08-03T09:30:00Z,28.8425,-94.2433,2.0,78.08235196,10.16919368,-99999.0,'11111222,11111222,99999999' 
TABS,ioos:station:wmo:42050:1,2009-08-03T10:00:00Z,28.8425,-94.2433,2.0,90.5869325,12.69066586,-99999.0,'11111222,11111222,99999999' 
TABS,ioos:station:wmo:42050:1,2009-08-03T10:30:00Z,28.8425,-94.2433,2.0,97.81353604,12.79882807,-99999.0,'11111222,11111222,99999999' 
TABS,ioos:station:wmo:42050:1,2009-08-03T11:00:00Z,28.8425,-94.2433,2.0,96.03441709,11.79535926,-99999.0,'11111222,11111222,99999999' 
TABS,ioos:station:wmo:42050:1,2009-08-03T11:30:00Z,28.8425,-94.2433,2.0,107.7345048,12.93468206,-99999.0,'11111222,11111222,99999999' 
TABS,ioos:station:wmo:42050:1,2009-08-03T12:00:00Z,28.8425,-94.2433,2.0,116.7584359,14.57030199,-99999.0,'11111222,11111222,99999999' 
TABS,ioos:station:wmo:42050:1,2009-08-03T12:30:00Z,28.8425,-94.2433,2.0,100.9842736,13.80287651,-99999.0,'11111222,11111222,99999999' 
TABS,ioos:station:wmo:42050:1,2009-08-03T13:00:00Z,28.8425,-94.2433,2.0,110.5299821,12.88857246,-99999.0,'11111222,11111222,99999999' 
TABS,ioos:station:wmo:42050:1,2009-08-03T13:30:00Z,28.8425,-94.2433,2.0,109.6895777,11.84240685,-99999.0,'11111222,11111222,99999999' 
TABS,ioos:station:wmo:42050:1,2009-08-03T14:00:00Z,28.8425,-94.2433,2.0,100.8890258,12.28112373,-99999.0,'11111222,11111222,99999999' 
TABS,ioos:station:wmo:42050:1,2009-08-03T14:30:00Z,28.8425,-94.2433,2.0,103.4296274,12.14201384,-99999.0,'11111222,11111222,99999999' 
TABS,ioos:station:wmo:42050:1,2009-08-03T15:00:00Z,28.8425,-94.2433,2.0,101.1493545,10.49813793,-99999.0,'11111222,11111222,99999999' 
TABS,ioos:station:wmo:42050:1,2009-08-03T15:30:00Z,28.8425,-94.2433,2.0,97.70017368,11.12027428,-99999.0,'11111222,11111222,99999999' 
TABS,ioos:station:wmo:42050:1,2009-08-03T16:00:00Z,28.8425,-94.2433,2.0,96.1318637,13.66820032,-99999.0,'11111222,11111222,99999999' 
TABS,ioos:station:wmo:42050:1,2009-08-03T16:30:00Z,28.8425,-94.2433,2.0,100.0932979,14.77872119,-99999.0,'11111222,11111222,99999999' 
TABS,ioos:station:wmo:42050:1,2009-08-03T17:00:00Z,28.8425,-94.2433,2.0,92.19990956,16.41209615,-99999.0,'11111222,11111222,99999999' 
TABS,ioos:station:wmo:42050:1,2009-08-03T17:30:00Z,28.8425,-94.2433,2.0,97.73139727,16.05595528,-99999.0,'11111222,11111222,99999999' 
TABS,ioos:station:wmo:42050:1,2009-08-03T18:00:00Z,28.8425,-94.2433,2.0,88.73911088,13.63330114,-99999.0,'11111222,11111222,99999999' 
TABS,ioos:station:wmo:42050:1,2009-08-03T18:30:00Z,28.8425,-94.2433,2.0,91.77757019,14.50698108,-99999.0,'11111222,11111222,99999999' 
TABS,ioos:station:wmo:42050:1,2009-08-03T19:00:00Z,28.8425,-94.2433,2.0,95.01310203,14.3047195,-99999.0,'11111222,11111222,99999999' 
TABS,ioos:station:wmo:42050:1,2009-08-03T19:30:00Z,28.8425,-94.2433,2.0,101.318104,13.70655683,-99999.0,'11111222,11111222,99999999' 
TABS,ioos:station:wmo:42050:1,2009-08-03T20:00:00Z,28.8425,-94.2433,2.0,105.087919,12.02451662,-99999.0,'11111222,11111222,99999999' 
TABS,ioos:station:wmo:42050:1,2009-08-03T20:30:00Z,28.8425,-94.2433,2.0,90.20389823,11.24007117,-99999.0,'11111222,11111222,99999999' 
TABS,ioos:station:wmo:42050:1,2009-08-03T21:00:00Z,28.8425,-94.2433,2.0,103.8357664,13.1721904,-99999.0,'11111222,11111222,99999999' 
TABS,ioos:station:wmo:42050:1,2009-08-03T21:30:00Z,28.8425,-94.2433,2.0,113.8737706,11.81052073,-99999.0,'11111222,11111222,99999999' 
TABS,ioos:station:wmo:42050:1,2009-08-03T22:00:00Z,28.8425,-94.2433,2.0,111.6369188,9.058255903,-99999.0,'11133222,11111222,99999999' 
TABS,ioos:station:wmo:42050:1,2009-08-03T22:30:00Z,28.8425,-94.2433,2.0,132.8407584,7.882766012,-99999.0,'11133222,11111222,99999999' 
TABS,ioos:station:wmo:42050:1,2009-08-03T23:00:00Z,28.8425,-94.2433,2.0,121.9973229,7.605484863,-99999.0,'11133222,11111222,99999999' 
TABS,ioos:station:wmo:42050:1,2009-08-03T23:30:00Z,28.8425,-94.2433,2.0,145.1273318,5.107102897,-99999.0,'11133222,11111222,99999999' 
TABS,ioos:station:wmo:42050:1,2009-08-04T00:00:00Z,28.8425,-94.2433,2.0,137.5446932,5.096194659,-99999.0,'11133222,11111222,99999999' 
TABS,ioos:station:wmo:42050:1,2009-08-04T00:30:00Z,28.8425,-94.2433,2.0,144.4868381,2.702757851,-99999.0,'11133222,11111222,99999999' 
TABS,ioos:station:wmo:42050:1,2009-08-04T01:00:00Z,28.8425,-94.2433,2.0,72.07212216,0.357351368,-99999.0,'11133222,11111222,99999999' 
TABS,ioos:station:wmo:42050:1,2009-08-04T01:30:00Z,28.8425,-94.2433,2.0,323.9729213,0.952102936,-99999.0,'11133222,11111222,99999999' 
TABS,ioos:station:wmo:42050:1,2009-08-04T02:00:00Z,28.8425,-94.2433,2.0,333.3565186,3.255718047,-99999.0,'11133222,11111222,99999999' 
TABS,ioos:station:wmo:42050:1,2009-08-04T02:30:00Z,28.8425,-94.2433,2.0,357.6066091,6.225431712,-99999.0,'11133222,11111222,99999999' 
TABS,ioos:station:wmo:42050:1,2009-08-04T03:00:00Z,28.8425,-94.2433,2.0,349.1147089,6.619101147,-99999.0,'11133222,11111222,99999999' 
TABS,ioos:station:wmo:42050:1,2009-08-04T03:30:00Z,28.8425,-94.2433,2.0,3.625977967,10.12025691,-99999.0,'11111222,11111222,99999999' 
TABS,ioos:station:wmo:42050:1,2009-08-04T04:00:00Z,28.8425,-94.2433,2.0,9.20422989,10.94086377,-99999.0,'11111222,11111222,99999999' 
TABS,ioos:station:wmo:42050:1,2009-08-04T04:30:00Z,28.8425,-94.2433,2.0,356.6005042,13.15314791,-99999.0,'11111222,11111222,99999999' 
TABS,ioos:station:wmo:42050:1,2009-08-04T05:00:00Z,28.8425,-94.2433,2.0,8.714922955,11.08801154,-99999.0,'11111222,11111222,99999999' 
TABS,ioos:station:wmo:42050:1,2009-08-04T05:30:00Z,28.8425,-94.2433,2.0,4.859619669,11.9228562,-99999.0,'11111222,11111222,99999999' 
TABS,ioos:station:wmo:42050:1,2009-08-04T06:00:00Z,28.8425,-94.2433,2.0,16.82049868,11.7841631,-99999.0,'11111222,11111222,99999999' 
TABS,ioos:station:wmo:42050:1,2009-08-04T06:30:00Z,28.8425,-94.2433,2.0,21.8717197,12.13334249,-99999.0,'11111222,11111222,99999999' 
TABS,ioos:station:wmo:42050:1,2009-08-04T07:00:00Z,28.8425,-94.2433,2.0,31.64526934,11.96973266,-99999.0,'11111222,11111222,99999999' 
TABS,ioos:station:wmo:42050:1,2009-08-04T07:30:00Z,28.8425,-94.2433,2.0,32.89723052,10.42104121,-99999.0,'11111222,11111222,99999999' 
TABS,ioos:station:wmo:42050:1,2009-08-04T08:00:00Z,28.8425,-94.2433,2.0,39.59415872,10.05736546,-99999.0,'11111222,11111222,99999999' 
TABS,ioos:station:wmo:42050:1,2009-08-04T08:30:00Z,28.8425,-94.2433,2.0,52.81979114,10.70615711,-99999.0,'11111222,11111222,99999999' 
TABS,ioos:station:wmo:42050:1,2009-08-04T09:00:00Z,28.8425,-94.2433,2.0,67.71162284,9.175538131,-99999.0,'11133222,11111222,99999999' 
TABS,ioos:station:wmo:42050:1,2009-08-04T09:30:00Z,28.8425,-94.2433,2.0,73.82478815,8.902409786,-99999.0,'11133222,11111222,99999999' 
TABS,ioos:station:wmo:42050:1,2009-08-04T10:00:00Z,28.8425,-94.2433,2.0,72.09184281,8.943299168,-99999.0,'11133222,11111222,99999999' 
TABS,ioos:station:wmo:42050:1,2009-08-04T10:30:00Z,28.8425,-94.2433,2.0,99.20921937,8.560338778,-99999.0,'11133222,11111222,99999999' 
TABS,ioos:station:wmo:42050:1,2009-08-04T11:00:00Z,28.8425,-94.2433,2.0,91.30978054,8.312171798,-99999.0,'11133222,11111222,99999999' 
TABS,ioos:station:wmo:42050:1,2009-08-04T11:30:00Z,28.8425,-94.2433,2.0,108.5555279,7.510426086,-99999.0,'11133222,11111222,99999999' 
TABS,ioos:station:wmo:42050:1,2009-08-04T12:00:00Z,28.8425,-94.2433,2.0,91.72317598,8.313759679,-99999.0,'11133222,11111222,99999999' 
TABS,ioos:station:wmo:42050:1,2009-08-04T12:30:00Z,28.8425,-94.2433,2.0,74.01090903,12.59734099,-99999.0,'11111222,11111222,99999999' 
TABS,ioos:station:wmo:42050:1,2009-08-04T13:00:00Z,28.8425,-94.2433,2.0,84.25483184,13.18623525,-99999.0,'11111222,11111222,99999999' 
TABS,ioos:station:wmo:42050:1,2009-08-04T13:30:00Z,28.8425,-94.2433,2.0,68.84477089,11.52684259,-99999.0,'11111222,11111222,99999999' 
TABS,ioos:station:wmo:42050:1,2009-08-04T14:00:00Z,28.8425,-94.2433,2.0,71.95762365,12.46282873,-99999.0,'11111222,11111222,99999999' 
TABS,ioos:station:wmo:42050:1,2009-08-04T14:30:00Z,28.8425,-94.2433,2.0,65.73450741,10.36581401,-99999.0,'11111222,11111222,99999999' 
TABS,ioos:station:wmo:42050:1,2009-08-04T15:00:00Z,28.8425,-94.2433,2.0,48.66401031,14.71668781,-99999.0,'11111222,11111222,99999999' 
TABS,ioos:station:wmo:42050:1,2009-08-04T15:30:00Z,28.8425,-94.2433,2.0,48.81667052,21.56508521,-99999.0,'11111222,11111222,99999999' 
TABS,ioos:station:wmo:42050:1,2009-08-04T16:00:00Z,28.8425,-94.2433,2.0,47.90091953,20.53948636,-99999.0,'11111222,11111222,99999999' 